This is the latest recevied weather packets stored in our database for station/object DL1NUX-15. If no packets are shown the sender has not sent any weather packets the latest 10 day(s).
| Time | Temp. | Humidity | Pressure | Rain* | Wind** | Luminosity | Snow |
|---|---|---|---|---|---|---|---|
| 1777702542 | 13.33° C | 63% | 1025.4 hPa | 0 mm | - | 191 W/m² | - |
| 1777701943 | 10.56° C | 72% | 1025.5 hPa | 0 mm | - | 149 W/m² | - |
| 1777701343 | 10.56° C | 74% | 1025.5 hPa | 0 mm | - | 162 W/m² | - |
| 1777700744 | 11.11° C | 72% | 1025.4 hPa | 0 mm | - | 141 W/m² | - |
| 1777700145 | 11.67° C | 70% | 1025.3 hPa | 0 mm | - | 122 W/m² | - |
| 1777697146 | 6.67° C | 86% | 1025.4 hPa | 0 mm | - | 28 W/m² | - |
| 1777696546 | 6.67° C | 87% | 1025.4 hPa | 0 mm | - | 25 W/m² | - |
| 1777694133 | 6.11° C | 87% | 1025.4 hPa | 0 mm | - | 2 W/m² | - |
| 1777688137 | 7.22° C | 85% | 1025.7 hPa | 0 mm | - | 0 W/m² | - |
| 1777687537 | 7.78° C | 84% | 1025.7 hPa | 0 mm | - | 0 W/m² | - |
| 1777686338 | 7.78° C | 83% | 1025.7 hPa | 0 mm | - | 0 W/m² | - |
| 1777685139 | 7.78° C | 82% | 1025.8 hPa | 0 mm | - | 0 W/m² | - |
| 1777684539 | 8.33° C | 82% | 1025.9 hPa | 0 mm | - | 0 W/m² | - |
| 1777682741 | 8.89° C | 79% | 1025.9 hPa | 0 mm | - | 0 W/m² | - |
| 1777682140 | 8.89° C | 75% | 1026 hPa | 0 mm | - | 0 W/m² | - |
| 1777681541 | 9.44° C | 74% | 1026 hPa | 0 mm | - | 0 W/m² | - |
| 1777679743 | 9.44° C | 74% | 1026 hPa | 0 mm | - | 0 W/m² | - |
| 1777679143 | 10° C | 72% | 1026.3 hPa | 0 mm | - | 0 W/m² | - |
| 1777678543 | 10° C | 73% | 1026.2 hPa | 0 mm | - | 0 W/m² | - |
| 1777677943 | 10° C | 71% | 1026.2 hPa | 0 mm | - | 0 W/m² | - |
| 1777676745 | 10° C | 71% | 1026.2 hPa | 0 mm | - | 0 W/m² | - |
| 1777676145 | 11.11° C | 67% | 1026.3 hPa | 0 mm | - | 0 W/m² | - |
| 1777675545 | 11.11° C | 65% | 1026.3 hPa | 0 mm | - | 0 W/m² | - |
| 1777674946 | 11.11° C | 66% | 1026.4 hPa | 0 mm | - | 0 W/m² | - |
| 1777674358 | 11.11° C | 65% | 1026.6 hPa | 0 mm | - | 0 W/m² | - |
* Rain latest hour (hover to see other rain measurements)
** Current wind speed in m/s (hover to see current wind gust speed)